Torna al catalogo

STARLINK-4369

AttivoComunicazioniSSO
NORAD 53191·PAYLOAD·🇺🇸 United States

Lanciato Jul 22, 2022 da Vandenberg Space Force Base

Loading…

Prossimi Passaggi (prossime 24 ore)

TLE

AggiornatoSource: CelesTrak SupGP

Epoca: Sep 15, 2026, 01:18 UTC

1 53191C 22084C   26258.05465278  .00052901  00000+0  14681-2 0  2581
2 53191  97.4819 322.0587 0000708 110.9824 217.3882 15.36937165    14

Traccia STARLINK-4369 in tempo reale con AllMySat

Download on the App Store